This demonstration page uses our WeatherBlox Daily Observations layout. Learn more.

Left ArrowRight Arrow

38.89511, -77.03637

Hourly Observations for February 12, 2017

Temp ( °F °C ) Dew Point ( °F °C ) Humidity (%) Winds ( mph kmh ) Pressure ( in mb ) Visibility ( mi km ) Precip ( " mm )
12:52 am 00:52 Cloudy 45 7.2 38 3.3 77 77 NNE 5 7 30.00 1016 10 16 0.00 0.00
1:52 am 01:52 Cloudy 48 8.9 36 2.2 63 63 N 7 11 30.00 1016 10 16 0.00 0.00
2:52 am 02:52 Cloudy 47 8.3 36 2.2 66 66 NE 8 13 29.97 1015 10 16 0.00 0.00
3:52 am 03:52 Cloudy 49 9.4 35 1.7 59 59 ESE 5 7 29.97 1015 10 16 0.00 0.00
4:52 am 04:52 Cloudy 47 8.3 36 2.2 66 66 NE 8 13 29.98 1015 10 16 0.00 0.00
5:52 am 05:52 Cloudy 47 8.3 36 2.2 66 66 NE 9 15 29.93 1014 10 16 0.00 0.00
6:52 am 06:52 Cloudy 48 8.9 36 2.2 63 63 NNE 6 9 29.91 1013 10 16 0.00 0.00
7:52 am 07:52 Cloudy 48 8.9 37 2.8 66 66 E 7 11 29.88 1012 10 16 0.00 0.00
8:52 am 08:52 Cloudy 47 8.3 38 3.3 71 71 E 6 9 29.86 1011 10 16 0.00 0.00
9:52 am 09:52 Cloudy 48 8.9 40 4.4 74 74 E 8 13 29.83 1010 10 16 0.00 0.03
10:52 am 10:52 Cloudy with Light Rain 48 8.9 41 5 77 77 E 6 9 29.79 1009 10 16 0.00 0.03
11:52 am 11:52 Cloudy 49 9.4 45 7.2 86 86 N 8 13 29.78 1008 10 16 0.03 0.76
12:30 pm 12:30 Mostly Cloudy 51 10.6 45 7.2 80 80 N 6 9 29.74 1007 10 16 0.00 0.00
12:52 pm 12:52 Mostly Cloudy 51 10.6 46 7.8 83 83 N 7 11 29.73 1007 10 16 0.00 0.00
1:16 pm 13:16 Cloudy 52 11 46 8 82 82 N 6 9 29.74 1007 10 16 0.00 0.00
1:52 pm 13:52 Cloudy 50 10 46 7.8 86 86 ENE 7 11 29.70 1006 9 14 0.00 0.00
2:52 pm 14:52 Cloudy 52 11.1 47 8.3 83 83 NE 6 9 29.68 1005 9 14 0.00 0.00
3:52 pm 15:52 Mostly Cloudy 51 10.6 46 7.8 83 83 NE 7 11 29.67 1005 7 11 0.00 0.00
4:52 pm 16:52 Cloudy 51 10.6 46 7.8 83 83 N 17 28 29.73 1007 10 16 0.00 0.00
5:52 pm 17:52 Mostly Cloudy 49 9.4 45 7.2 86 86 NNW 10 17 29.75 1007 10 16 0.00 0.00
6:52 pm 18:52 Mostly Cloudy 49 9.4 44 6.7 83 83 NNW 17 28 29.77 1008 10 16 0.00 0.00
7:52 pm 19:52 Mostly Cloudy 48 8.9 43 6.1 83 83 NNW 14 22 29.77 1008 10 16 0.00 0.00
8:52 pm 20:52 Partly Cloudy 49 9.4 42 5.6 77 77 NNW 8 13 29.78 1008 10 16 0.00 0.00
9:52 pm 21:52 Cloudy 53 11.7 40 4.4 61 61 W 9 15 29.78 1008 10 16 0.00 0.00
10:52 pm 22:52 Mostly Cloudy 55 12.8 32 0 42 42 W 21 33 29.74 1007 10 16 0.00 0.00
11:22 pm 23:22 Cloudy with Light Rain 52 11 34 1 50 50 NW 52 83 29.83 1010 10 16 0.00 0.00
11:52 pm 23:52 Cloudy 47 8.3 30 -1.1 52 52 NW 18 30 29.85 1011 10 16 0.00 0.03

Powered by AerisWeather